Weather History for KSJC - November, 2013

Change the Weather History Date:

Thursday, November 21, 2013

  Actual Average Record
Temperature  
Mean Temperature 56 °F 56 °F  
Max Temperature 62 °F 66 °F 73 °F (2002)
Min Temperature 50 °F 45 °F 27 °F (1894)
Degree Days  
Heating Degree Days 9 10  
Month to date heating degree days 161 150  
Since 1 July heating degree days 286 232  
Cooling Degree Days 0 0  
Month to date cooling degree days 0 0  
Year to date cooling degree days 549 728  
Growing Degree Days 6 (Base 50)    
Moisture  
Dew Point 41 °F    
Average Humidity 63    
Maximum Humidity 100    
Minimum Humidity 25    
Precipitation  
Precipitation 0.01 in 0.07 in 0.80 in (1978)
Month to date precipitation 0.77 1.31  
Year to date precipitation 3.67 12.21  
Since 1 July precipitation 1.43 2.32  
Sea Level Pressure  
Sea Level Pressure 29.93 in    
Wind  
Wind Speed 8 mph (NW)    
Max Wind Speed 18 mph    
Max Gust Speed 28 mph    
Visibility 9 miles    
Events Rain    
T = Trace of Precipitation, MM = Missing Value Source: NWS Daily Summary

Daily Weather History Graph

Daily Weather History Graph

Search for Another Location

Airport or City:

Trip Planner

Search our weather history database for the weather conditions in past years. The results will help you decide how hot, cold, wet, or windy it might be!

Date:

Astronomy

Nov. 21, 2013 Rise Set
Actual Time 6:53 AM PST 4:53 PM PST
Civil Twilight 6:25 AM PST 5:21 PM PST
Nautical Twilight 5:53 AM PST 5:53 PM PST
Astronomical Twilight 5:22 AM PST 6:24 PM PST
Moon 8:34 PM PST (11/21) 10:04 AM PST (11/21)
Length of Visible Light 10h 56m
Length of Day
9h 59m
Waning Gibbous, 84% of the Moon is Illuminated
Nov 21
Waning Gibbous
Nov 25
Last Quarter
Dec 2
New
Dec 9
First Quarter
Dec 17
Full

Hourly Weather History & Observations

Time (PST) Temp. Dew Point Humidity Pressure Visibility Wind Dir Wind Speed Gust Speed Precip Events Conditions
12:13 AM 53.6 °F 51.8 °F 94% 29.92 in 10.0 mi NW 4.6 mph - N/A   Overcast
12:53 AM 53.1 °F 51.1 °F 93% 29.91 in 10.0 mi NW 5.8 mph - N/A   Overcast
1:36 AM 51.8 °F 51.8 °F 100% 29.91 in 3.0 mi NW 6.9 mph - N/A   Overcast
1:53 AM 51.1 °F 51.1 °F 100% 29.92 in 2.5 mi WNW 6.9 mph - N/A   Overcast
2:15 AM 51.8 °F 51.8 °F 100% 29.92 in 3.0 mi NW 8.1 mph - 0.00 in Rain Light Rain
2:30 AM 51.8 °F 51.8 °F 100% 29.92 in 3.0 mi NW 6.9 mph - 0.00 in   Overcast
2:51 AM 50.0 °F 50.0 °F 100% 29.92 in 2.5 mi WNW 6.9 mph - 0.01 in Rain Light Rain
2:53 AM 50.0 °F 50.0 °F 100% 29.92 in 2.5 mi WNW 6.9 mph - 0.01 in Rain Light Rain
3:00 AM 50.0 °F 50.0 °F 100% 29.92 in 4.0 mi WNW 6.9 mph - 0.00 in Rain Light Rain
3:53 AM 51.1 °F 51.1 °F 100% 29.92 in 10.0 mi NW 8.1 mph - 0.00 in Rain Light Rain
4:00 AM 51.8 °F 50.0 °F 94% 29.92 in 10.0 mi NW 8.1 mph - N/A   Overcast
4:53 AM 51.1 °F 51.1 °F 100% 29.92 in 10.0 mi WNW 5.8 mph - N/A   Overcast
5:14 AM 51.8 °F 50.0 °F 94% 29.92 in 10.0 mi NW 5.8 mph - N/A   Overcast
5:25 AM 51.8 °F 50.0 °F 94% 29.93 in 10.0 mi WNW 6.9 mph - N/A   Overcast
5:42 AM 51.8 °F 50.0 °F 94% 29.93 in 10.0 mi WNW 8.1 mph - N/A   Overcast
5:53 AM 51.1 °F 50.0 °F 96% 29.93 in 10.0 mi West 6.9 mph - N/A   Overcast
6:53 AM 51.1 °F 50.0 °F 96% 29.94 in 10.0 mi West 5.8 mph - 0.00 in   Mostly Cloudy
7:53 AM 52.0 °F 44.1 °F 74% 29.96 in 10.0 mi NW 4.6 mph - 0.00 in   Mostly Cloudy
8:30 AM 53.6 °F 42.8 °F 67% 29.96 in 10.0 mi Calm Calm - N/A   Mostly Cloudy
8:53 AM 53.1 °F 46.0 °F 77% 29.96 in 10.0 mi South 5.8 mph - N/A   Mostly Cloudy
9:53 AM 54.0 °F 41.0 °F 62% 29.97 in 10.0 mi Calm Calm - N/A   Mostly Cloudy
10:53 AM 55.0 °F 35.1 °F 47% 29.96 in 10.0 mi Calm Calm - N/A   Mostly Cloudy
11:53 AM 57.9 °F 33.1 °F 39% 29.94 in 10.0 mi NNE 9.2 mph - N/A   Scattered Clouds
12:53 PM 61.0 °F 33.1 °F 35% 29.92 in 10.0 mi NW 13.8 mph 20.7 mph N/A   Scattered Clouds
1:53 PM 61.0 °F 28.0 °F 29% 29.91 in 10.0 mi North 15.0 mph 21.9 mph N/A   Scattered Clouds
2:53 PM 61.0 °F 26.1 °F 26% 29.91 in 10.0 mi NNW 10.4 mph 24.2 mph N/A   Scattered Clouds
3:53 PM 61.0 °F 24.1 °F 24% 29.91 in 10.0 mi NW 13.8 mph 19.6 mph N/A   Partly Cloudy
4:53 PM 59.0 °F 24.1 °F 26% 29.91 in 10.0 mi Variable 6.9 mph - N/A   Partly Cloudy
5:53 PM 57.9 °F 23.0 °F 26% 29.92 in 10.0 mi Variable 5.8 mph - N/A   Partly Cloudy
6:53 PM 57.9 °F 24.1 °F 27% 29.94 in 10.0 mi NNW 10.4 mph 19.6 mph N/A   Partly Cloudy
7:53 PM 57.0 °F 26.1 °F 30% 29.93 in 10.0 mi NNW 8.1 mph 19.6 mph N/A   Partly Cloudy
8:53 PM 53.1 °F 28.0 °F 38% 29.94 in 10.0 mi WNW 13.8 mph 20.7 mph N/A   Clear
9:53 PM 53.1 °F 28.0 °F 38% 29.97 in 10.0 mi NW 8.1 mph - N/A   Clear
10:53 PM 53.1 °F 27.0 °F 37% 29.98 in 10.0 mi NW 8.1 mph - N/A   Partly Cloudy
11:53 PM 53.1 °F 25.0 °F 34% 30.00 in 10.0 mi NW 8.1 mph - N/A   Clear